Klawock, AK

1:39 AM AKST on January 24, 2017 (GMT -0900)
Klawock

Weather History for PAKW - May, 2013

Change the Weather History Date:

Monday, May 20, 2013

  Actual Average Record
Temperature  
Mean Temperature 44 °F -  
Max Temperature 51 °F 54 °F 75 °F (1997)
Min Temperature 36 °F 39 °F 35 °F (2003)
Degree Days  
Heating Degree Days 22    
Moisture  
Dew Point 33 °F    
Average Humidity 65    
Maximum Humidity 93    
Minimum Humidity 46    
Precipitation  
Precipitation 0.01 in - - ()
Sea Level Pressure  
Sea Level Pressure 30.34 in    
Wind  
Wind Speed 3 mph (NW)    
Max Wind Speed 14 mph    
Max Gust Speed 21 mph    
Visibility 10 miles    
Events      
Averages and records for this station are not official NWS values.
T = Trace of Precipitation, MM = Missing Value Source: NWS Daily Summary

Daily Weather History Graph

Daily Weather History Graph

Search for Another Location

Airport or City:

Trip Planner

Search our weather history database for the weather conditions in past years. The results will help you decide how hot, cold, wet, or windy it might be!

Date:

Astronomy

May. 20, 2013 Rise Set
Actual Time 4:32 AM AKDT 9:06 PM AKDT
Civil Twilight 3:41 AM AKDT 9:58 PM AKDT
Nautical Twilight 2:18 AM AKDT 11:22 PM AKDT
Astronomical Twilight Sun does not rise Sun does not rise
Moon 3:34 PM AKDT (5/20) 2:25 AM AKDT (5/20)
Length of Visible Light 18h 16m
Length of Day
16h 34m
Waxing Gibbous, 76% of the Moon is Illuminated
May 20
Waxing Gibbous
May 24
Full
May 31
Last Quarter
Jun 8
New
Jun 16
First Quarter

Hourly Weather History & Observations

Time (AKDT) Temp. Windchill Dew Point Humidity Pressure Visibility Wind Dir Wind Speed Gust Speed Precip Events Conditions
12:53 AM 37.9 °F - 35.1 °F 89% 30.49 in 10.0 mi Calm Calm - N/A   Overcast
1:53 AM 39.0 °F - 37.0 °F 93% 30.48 in 10.0 mi Calm Calm - 0.00 in   Overcast
2:53 AM 37.9 °F - 36.0 °F 93% 30.47 in 10.0 mi Calm Calm - N/A   Overcast
3:53 AM 37.0 °F - 33.1 °F 86% 30.46 in 10.0 mi Calm Calm - N/A   Overcast
4:53 AM 37.0 °F - 33.1 °F 86% 30.45 in 10.0 mi Calm Calm - N/A   Overcast
5:53 AM 36.0 °F - 33.1 °F 89% 30.44 in 10.0 mi Calm Calm - N/A   Mostly Cloudy
6:53 AM 39.0 °F - 35.1 °F 86% 30.43 in 10.0 mi Calm Calm - N/A   Mostly Cloudy
7:53 AM 43.0 °F 41.3 °F 33.1 °F 68% 30.41 in 10.0 mi Variable 3.5 mph - N/A   Overcast
8:53 AM 43.0 °F 41.3 °F 33.1 °F 68% 30.40 in 10.0 mi Variable 3.5 mph - N/A   Overcast
9:53 AM 45.0 °F 42.6 °F 30.9 °F 58% 30.38 in 10.0 mi NW 4.6 mph - N/A   Overcast
10:53 AM 46.9 °F - 30.0 °F 52% 30.37 in 10.0 mi NNW 3.5 mph - N/A   Overcast
11:53 AM 46.9 °F - 30.9 °F 54% 30.35 in 10.0 mi WNW 8.1 mph - 0.01 in   Overcast
12:53 PM 48.0 °F - 32.0 °F 54% 30.33 in 10.0 mi West 8.1 mph - N/A   Overcast
1:53 PM 48.0 °F - 30.9 °F 52% 30.32 in 10.0 mi WNW 8.1 mph - N/A   Overcast
2:53 PM 46.9 °F - 34.0 °F 61% 30.31 in 10.0 mi NW 10.4 mph 18.4 mph N/A   Overcast
3:53 PM 51.1 °F - 33.1 °F 50% 30.28 in 10.0 mi NW 11.5 mph 20.7 mph N/A   Mostly Cloudy
4:53 PM 50.0 °F - 32.0 °F 50% 30.27 in 10.0 mi NW 13.8 mph 19.6 mph N/A   Overcast
5:53 PM 48.9 °F - 33.1 °F 54% 30.26 in 10.0 mi WNW 9.2 mph - N/A   Overcast
6:53 PM 48.0 °F - 33.1 °F 56% 30.25 in 10.0 mi Calm Calm - N/A   Overcast
7:53 PM 48.9 °F - 32.0 °F 52% 30.23 in 10.0 mi Calm Calm - N/A   Overcast
8:53 PM 46.9 °F - 33.1 °F 59% 30.22 in 10.0 mi Calm Calm - N/A   Overcast
9:53 PM 46.0 °F - 33.1 °F 61% 30.22 in 10.0 mi Calm Calm - N/A   Scattered Clouds
10:53 PM 46.9 °F - 27.0 °F 46% 30.20 in 10.0 mi NNE 6.9 mph - N/A   Clear
11:53 PM 45.0 °F 43.5 °F 28.0 °F 52% 30.19 in 10.0 mi Variable 3.5 mph - N/A   Clear